Mosinee, WI

7:38 AM CDT on August 27, 2016 (GMT -0500)
Central Wisconsin

Weather History for KCWA - April, 2014

Change the Weather History Date:

Wednesday, April 23, 2014

  Actual Average Record
Temperature  
Mean Temperature 40 °F -  
Max Temperature 50 °F 56 °F 71 °F (1998)
Min Temperature 30 °F 33 °F 26 °F (2002)
Degree Days  
Heating Degree Days 25    
Moisture  
Dew Point 27 °F    
Average Humidity 64    
Maximum Humidity 87    
Minimum Humidity 35    
Precipitation  
Precipitation 0.00 in - - ()
Sea Level Pressure  
Sea Level Pressure 30.12 in    
Wind  
Wind Speed 4 mph (East)    
Max Wind Speed 12 mph    
Max Gust Speed 17 mph    
Visibility 10 miles    
Events      
Averages and records for this station are not official NWS values.
T = Trace of Precipitation, MM = Missing Value Source: NWS Daily Summary

Daily Weather History Graph

Daily Weather History Graph

Search for Another Location

Airport or City:

Trip Planner

Search our weather history database for the weather conditions in past years. The results will help you decide how hot, cold, wet, or windy it might be!

Date:

Astronomy

Apr. 23, 2014 Rise Set
Actual Time 6:00 AM CDT 7:53 PM CDT
Civil Twilight 5:29 AM CDT 8:25 PM CDT
Nautical Twilight 4:51 AM CDT 9:03 PM CDT
Astronomical Twilight 4:09 AM CDT 9:45 PM CDT
Moon 2:48 AM CDT (4/23) 1:47 PM CDT (4/23)
Length of Visible Light 14h 55m
Length of Day
13h 53m
Waning Crescent, 34% of the Moon is Illuminated
Apr 23
Waning Crescent
Apr 29
New
May 6
First Quarter
May 14
Full
May 21
Last Quarter

Hourly Weather History & Observations

Time (CDT) Temp. Windchill Dew Point Humidity Pressure Visibility Wind Dir Wind Speed Gust Speed Precip Events Conditions
12:15 AM 35.6 °F - 26.6 °F 70% 30.12 in 10.0 mi Calm Calm - N/A   Clear
12:35 AM 37.4 °F 34.9 °F 26.6 °F 65% 30.12 in 10.0 mi North 3.5 mph - N/A   Clear
12:55 AM 32.0 °F - 26.6 °F 80% 30.13 in 10.0 mi Calm Calm - N/A   Clear
1:15 AM 32.0 °F - 28.4 °F 87% 30.13 in 10.0 mi Calm Calm - N/A   Clear
1:35 AM 33.8 °F - 28.4 °F 81% 30.13 in 10.0 mi Calm Calm - N/A   Clear
1:55 AM 33.8 °F - 28.4 °F 81% 30.14 in 10.0 mi Calm Calm - N/A   Clear
2:15 AM 32.0 °F - 26.6 °F 80% 30.14 in 10.0 mi Calm Calm - N/A   Clear
2:35 AM 33.8 °F 29.6 °F 28.4 °F 81% 30.14 in 10.0 mi North 4.6 mph - N/A   Clear
2:55 AM 32.0 °F 27.5 °F 28.4 °F 87% 30.14 in 10.0 mi North 4.6 mph - N/A   Clear
3:15 AM 32.0 °F 27.5 °F 28.4 °F 87% 30.14 in 10.0 mi North 4.6 mph - N/A   Clear
3:35 AM 32.0 °F 26.4 °F 28.4 °F 87% 30.14 in 10.0 mi NNE 5.8 mph - N/A   Clear
3:55 AM 32.0 °F 28.7 °F 28.4 °F 87% 30.14 in 10.0 mi NNE 3.5 mph - N/A   Clear
4:15 AM 32.0 °F - 28.4 °F 87% 30.15 in 10.0 mi Calm Calm - N/A   Clear
4:55 AM 32.0 °F 28.7 °F 28.4 °F 87% 30.15 in 10.0 mi NNE 3.5 mph - N/A   Clear
5:15 AM 32.0 °F 28.7 °F 26.6 °F 80% 30.15 in 10.0 mi NNE 3.5 mph - N/A   Clear
5:35 AM 30.2 °F 26.7 °F 26.6 °F 86% 30.15 in 10.0 mi NE 3.5 mph - N/A   Clear
5:45 AM 33.8 °F 30.8 °F 26.6 °F 75% 30.15 in 10.0 mi NE 3.5 mph - N/A   Clear
6:47 AM 30.2 °F 26.7 °F 26.6 °F 86% 30.16 in 10.0 mi ENE 3.5 mph - N/A   Clear
7:50 AM 35.6 °F 29.9 °F 30.2 °F 81% 30.16 in 10.0 mi East 6.9 mph - N/A   Clear
8:50 AM 39.2 °F 35.0 °F 28.4 °F 65% 30.17 in 10.0 mi East 5.8 mph - N/A   Clear
9:55 AM 41.0 °F 36.4 °F 26.6 °F 57% 30.17 in 10.0 mi East 6.9 mph - N/A   Clear
10:45 AM 42.8 °F 38.0 °F 26.6 °F 53% 30.16 in 10.0 mi SE 8.1 mph - N/A   Clear
11:45 AM 46.4 °F 42.4 °F 24.8 °F 43% 30.17 in 10.0 mi SSE 8.1 mph - N/A   Clear
12:45 PM 46.4 °F 42.4 °F 23.0 °F 40% 30.16 in 10.0 mi SSE 8.1 mph - N/A   Clear
1:45 PM 46.4 °F 42.9 °F 24.8 °F 43% 30.14 in 10.0 mi ESE 6.9 mph - N/A   Clear
2:45 PM 48.2 °F - 24.8 °F 40% 30.12 in 10.0 mi SSE 9.2 mph 16.1 mph N/A   Clear
3:45 PM 50.0 °F - 23.0 °F 35% 30.11 in 10.0 mi SE 11.5 mph 16.1 mph N/A   Clear
4:50 PM 48.2 °F - 23.0 °F 37% 30.10 in 10.0 mi SSE 10.4 mph - N/A   Clear
5:45 PM 48.2 °F - 23.0 °F 37% 30.09 in 10.0 mi SE 8.1 mph - N/A   Clear
6:45 PM 46.4 °F 41.9 °F 24.8 °F 43% 30.07 in 10.0 mi ESE 9.2 mph - N/A   Clear
7:45 PM 46.4 °F 42.9 °F 24.8 °F 43% 30.05 in 10.0 mi ESE 6.9 mph - N/A   Mostly Cloudy
8:45 PM 44.6 °F 39.2 °F 24.8 °F 46% 30.03 in 10.0 mi East 10.4 mph - N/A   Overcast
9:45 PM 44.6 °F 40.2 °F 26.6 °F 49% 30.05 in 10.0 mi ESE 8.1 mph - N/A   Overcast
10:15 PM 42.8 °F 36.6 °F 28.4 °F 57% 30.07 in 10.0 mi ESE 11.5 mph 17.3 mph N/A   Overcast
10:35 PM 42.8 °F 38.0 °F 28.4 °F 57% 30.07 in 10.0 mi ESE 8.1 mph - N/A   Overcast
10:55 PM 42.8 °F 36.6 °F 28.4 °F 57% 30.07 in 10.0 mi East 11.5 mph - N/A   Mostly Cloudy
11:15 PM 42.8 °F 37.5 °F 26.6 °F 53% 30.07 in 10.0 mi East 9.2 mph - N/A   Overcast
11:35 PM 41.0 °F 35.2 °F 26.6 °F 57% 30.07 in 10.0 mi East 9.2 mph - N/A   Overcast
11:55 PM 41.0 °F 37.1 °F 21.2 °F 45% 30.07 in 10.0 mi ESE 5.8 mph - N/A   Overcast